QPF
0.08 0.07 0.06 0.04 0.04 0.03 0.03 0.03 0.04 0.04 0.05 0.06 0.07 0.07 0.06 0.05 0.05 0.03 0.03 0.03 0.03 0.02 0.03 0.04 0.05 0.05 0.07 0.08 0.08 0.10 0.11 0.11 0.11 0.09 0.08 0.06 0.03 0.03 0.02 0.03 0.04 0.03 0.04
0.04 0.03 0.03 0.03 0.02 0.02 0.02 0.02 0.03 0.03 0.03 0.04 0.04 0.04 0.03 0.02 0.02 0.01 0.01 0.01 0.01 0.01 0.02 0.03 0.03 0.03 0.04 0.04 0.05 0.06 0.06 0.05 0.07 0.06 0.06 0.04 0.02 0.03 0.01 0.03 0.03 0.04 0.06
0.02 0.01 0.01 0.01 0.01 0.01 0.01 0.01 0.02 0.02 0.02 0.02 0.02 0.03 0.02 0.02 0.02 0.01 0.02 0.01 0.00 0.01 0.01 0.01 0.01 0.02 0.01 0.02 0.04 0.04 0.04 0.05 0.05 0.05 0.05 0.03 0.02 0.02 0.01 0.01 0.03 0.04 0.05
0.01 0.02 0.02 0.01 0.00 0.00 0.01 0.01 0.01 0.01 0.01 0.01 0.02 0.02 0.02 0.02 0.02 0.02 0.02 0.02 0.01 0.00 0.00 0.01 0.01 0.01 0.01 0.01 0.01 0.03 0.04 0.05 0.04 0.04 0.04 0.03 0.03 0.03 0.02 0.01 0.02 0.03 0.04
0.04 0.05 0.03 0.00 0.00 0.00 0.01 0.01 0.01 0.01 0.01 0.01 0.02 0.02 0.02 0.02 0.02 0.01 0.02 0.01 0.01 0.01 0.00 0.01 0.01 0.01 0.01 0.01 0.01 0.02 0.02 0.03 0.03 0.03 0.04 0.04 0.05 0.05 0.03 0.02 0.01 0.01 0.01
0.05 0.05 0.02 0.00 0.00 0.01 0.01 0.01 0.02 0.03 0.01 0.01 0.02 0.02 0.02 0.02 0.01 0.01 0.02 0.01 0.01 0.01 0.01 0.01 0.01 0.01 0.01 0.01 0.02 0.02 0.02 0.03 0.03 0.03 0.03 0.03 0.04 0.04 0.04 0.03 0.02 0.01 0.01
0.02 0.01 0.00 0.00 0.00 0.01 0.01 0.01 0.02 0.03 0.02 0.01 0.01 0.01 0.02 0.02 0.01 0.01 0.01 0.01 0.01 0.01 0.01 0.01 0.01 0.01 0.02 0.01 0.01 0.02 0.02 0.02 0.03 0.03 0.02 0.02 0.02 0.01 0.02 0.02 0.02 0.01 0.01
0.01 0.00 0.00 0.00 0.00 0.00 0.00 0.00 0.01 0.02 0.02 0.01 0.01 0.01 0.01 0.01 0.00 0.00 0.00 0.00 0.00 0.00 0.00 0.01 0.01 0.01 0.01 0.01 0.02 0.02 0.02 0.03 0.04 0.02 0.03 0.02 0.01 0.01 0.02 0.02 0.03 0.02 0.01
0.00 0.00 0.00 0.00 0.00 0.00 0.00 0.00 0.01 0.01 0.01 0.00 0.00 0.00 0.00 0.00 0.00 0.00 0.01 0.01 0.01 0.00 0.00 0.01 0.01 0.01 0.01 0.01 0.02 0.02 0.02 0.03 0.03 0.02 0.03 0.03 0.02 0.02 0.02 0.03 0.03 0.03 0.02
0.00 0.00 0.00 0.00 0.00 0.00 0.00 0.00 0.00 0.00 0.00 0.00 0.00 0.00 0.00 0.00 0.00 0.01 0.01 0.01 0.01 0.01 0.01 0.01 0.01 0.01 0.01 0.02 0.02 0.02 0.03 0.03 0.04 0.03 0.03 0.04 0.02 0.02 0.02 0.03 0.03 0.04 0.03
0.00 0.00 0.00 0.00 0.00 0.00 0.00 0.00 0.00 0.00 0.00 0.00 0.00 0.00 0.00 0.00 0.00 0.01 0.01 0.01 0.01 0.01 0.01 0.02 0.02 0.01 0.02 0.02 0.03 0.02 0.02 0.03 0.03 0.03 0.03 0.04 0.04 0.04 0.03 0.04 0.04 0.05 0.05
0.00 0.00 0.00 0.00 0.00 0.00 0.00 0.00 0.00 0.00 0.00 0.00 0.00 0.00 0.00 0.00 0.01 0.01 0.01 0.01 0.01 0.01 0.02 0.02 0.02 0.01 0.02 0.02 0.03 0.03 0.03 0.03 0.03 0.03 0.04 0.04 0.05 0.07 0.06 0.06 0.05 0.06 0.06
0.00 0.00 0.00 0.00 0.00 0.00 0.00 0.00 0.00 0.00 0.00 0.00 0.00 0.00 0.00 0.00 0.01 0.01 0.01 0.01 0.01 0.01 0.02 0.02 0.02 0.02 0.02 0.03 0.03 0.04 0.03 0.04 0.04 0.04 0.05 0.04 0.05 0.07 0.08 0.08 0.06 0.06 0.04
0.00 0.00 0.00 0.00 0.00 0.00 0.00 0.00 0.00 0.00 0.00 0.00 0.00 0.00 0.00 0.00 0.00 0.00 0.01 0.01 0.01 0.01 0.02 0.02 0.03 0.03 0.03 0.03 0.04 0.04 0.04 0.05 0.04 0.05 0.05 0.04 0.05 0.06 0.08 0.07 0.07 0.06 0.06
0.00 0.00 0.00 0.00 0.00 0.00 0.00 0.00 0.00 0.00 0.00 0.00 0.00 0.00 0.00 0.00 0.00 0.00 0.01 0.01 0.01 0.01 0.02 0.02 0.03 0.03 0.03 0.03 0.02 0.02 0.03 0.03 0.03 0.04 0.05 0.05 0.04 0.04 0.04 0.03 0.06 0.08 0.09
0.00 0.00 0.00 0.00 0.00 0.00 0.00 0.00 0.00 0.00 0.00 0.00 0.00 0.00 0.00 0.00 0.00 0.00 0.01 0.01 0.02 0.02 0.02 0.02 0.03 0.03 0.02 0.01 0.00 0.00 0.00 0.01 0.01 0.02 0.04 0.04 0.02 0.01 0.01 0.00 0.00 0.02 0.04
0.00 0.00 0.00 0.00 0.00 0.00 0.00 0.00 0.00 0.00 0.00 0.00 0.00 0.00 0.00 0.00 0.00 0.00 0.01 0.02 0.02 0.02 0.02 0.02 0.03 0.04 0.05 0.02 0.00 0.00 0.00 0.00 0.01 0.02 0.04 0.03 0.02 0.03 0.06 0.05 0.02 0.01 0.00
0.00 0.00 0.00 0.00 0.00 0.00 0.00 0.00 0.00 0.00 0.00 0.00 0.00 0.00 0.00 0.00 0.00 0.00 0.01 0.02 0.02 0.02 0.02 0.02 0.04 0.05 0.05 0.01 0.00 0.00 0.00 0.01 0.01 0.03 0.06 0.07 0.06 0.07 0.09 0.09 0.10 0.08 0.05
0.00 0.00 0.00 0.00 0.00 0.00 0.00 0.00 0.00 0.00 0.00 0.00 0.00 0.00 0.00 0.00 0.00 0.00 0.02 0.02 0.02 0.02 0.02 0.03 0.04 0.05 0.06 0.03 0.00 0.00 0.01 0.02 0.05 0.07 0.08 0.10 0.10 0.10 0.04 0.04 0.06 0.08 0.09
0.00 0.00 0.00 0.00 0.00 0.00 0.00 0.00 0.00 0.00 0.00 0.00 0.00 0.00 0.00 0.00 0.00 0.01 0.02 0.02 0.02 0.02 0.02 0.03 0.05 0.05 0.07 0.05 0.01 0.00 0.01 0.03 0.04 0.06 0.07 0.06 0.04 0.03 0.01 0.03 0.06 0.07 0.09
0.00 0.00 0.00 0.00 0.00 0.00 0.00 0.00 0.00 0.00 0.00 0.00 0.00 0.00 0.00 0.00 0.01 0.01 0.02 0.02 0.03 0.04 0.04 0.04 0.05 0.06 0.05 0.04 0.01 0.00 0.01 0.02 0.03 0.04 0.06 0.08 0.03 0.00 0.00 0.01 0.03 0.05 0.07
0.00 0.00 0.00 0.00 0.00 0.00 0.00 0.00 0.00 0.00 0.00 0.00 0.00 0.00 0.00 0.00 0.00 0.02 0.02 0.03 0.05 0.05 0.05 0.06 0.05 0.06 0.07 0.05 0.03 0.00 0.00 0.00 0.01 0.03 0.05 0.06 0.01 0.00 0.00 0.00 0.00 0.00 0.00
0.00 0.00 0.01 0.00 0.00 0.00 0.00 0.00 0.00 0.00 0.00 0.00 0.00 0.00 0.00 0.01 0.02 0.02 0.03 0.03 0.06 0.06 0.05 0.04 0.04 0.04 0.05 0.06 0.02 0.00 0.00 0.00 0.01 0.02 0.02 0.01 0.00 0.00 0.01 0.01 0.00 0.00 0.01
0.00 0.00 0.00 0.00 0.00 0.00 0.00 0.00 0.00 0.00 0.00 0.00 0.00 0.00 0.01 0.01 0.02 0.03 0.02 0.02 0.03 0.03 0.03 0.02 0.02 0.03 0.05 0.06 0.05 0.04 0.03 0.02 0.02 0.03 0.02 0.01 0.01 0.01 0.02 0.03 0.02 0.02 0.03
0.00 0.00 0.00 0.00 0.00 0.00 0.00 0.00 0.00 0.00 0.01 0.01 0.01 0.01 0.01 0.01 0.02 0.02 0.02 0.01 0.01 0.01 0.01 0.00 0.01 0.01 0.02 0.02 0.01 0.00 0.01 0.01 0.02 0.02 0.03 0.05 0.08 0.07 0.07 0.09 0.09 0.08 0.07
0.00 0.00 0.00 0.00 0.00 0.00 0.00 0.00 0.00 0.00 0.01 0.01 0.02 0.01 0.00 0.00 0.01 0.01 0.02 0.01 0.01 0.00 0.00 0.00 0.00 0.00 0.00 0.00 0.00 0.00 0.00 0.00 0.00 0.01 0.02 0.06 0.09 0.11 0.12 0.13 0.13 0.13 0.11
MSLP
1009.99 1010.40 1010.83 1011.23 1011.57 1011.85 1012.09 1012.33 1012.58 1012.86 1013.17 1013.48 1013.75 1013.97 1014.09 1014.12 1014.07 1013.98 1013.90 1013.86 1013.92 1014.08 1014.33 1014.66 1015.02 1015.36 1015.66 1015.90 1016.05 1016.15 1016.19 1016.20 1016.19 1016.15 1016.07 1015.92 1015.68 1015.36 1014.95 1014.49 1014.02 1013.62 1013.33
1010.36 1010.81 1011.24 1011.59 1011.86 1012.05 1012.19 1012.33 1012.52 1012.77 1013.09 1013.43 1013.76 1014.02 1014.19 1014.23 1014.17 1014.04 1013.91 1013.81 1013.81 1013.93 1014.15 1014.47 1014.84 1015.20 1015.52 1015.77 1015.95 1016.07 1016.14 1016.18 1016.21 1016.21 1016.16 1016.05 1015.85 1015.53 1015.11 1014.61 1014.10 1013.62 1013.24
1010.62 1011.09 1011.51 1011.83 1012.03 1012.14 1012.20 1012.28 1012.42 1012.66 1012.99 1013.37 1013.75 1014.08 1014.29 1014.36 1014.31 1014.17 1014.00 1013.87 1013.82 1013.89 1014.09 1014.38 1014.72 1015.07 1015.39 1015.64 1015.83 1015.95 1016.04 1016.10 1016.16 1016.20 1016.21 1016.15 1016.00 1015.73 1015.33 1014.84 1014.31 1013.79 1013.35
1010.74 1011.21 1011.62 1011.92 1012.08 1012.14 1012.15 1012.19 1012.32 1012.56 1012.91 1013.33 1013.77 1014.14 1014.41 1014.52 1014.50 1014.37 1014.19 1014.03 1013.96 1013.99 1014.13 1014.38 1014.69 1015.00 1015.29 1015.51 1015.67 1015.78 1015.87 1015.94 1016.03 1016.11 1016.17 1016.17 1016.08 1015.87 1015.54 1015.09 1014.58 1014.06 1013.60
1010.67 1011.15 1011.56 1011.85 1012.01 1012.06 1012.07 1012.11 1012.24 1012.49 1012.87 1013.33 1013.81 1014.23 1014.54 1014.70 1014.71 1014.60 1014.43 1014.27 1014.17 1014.16 1014.26 1014.46 1014.71 1014.97 1015.19 1015.37 1015.49 1015.57 1015.63 1015.70 1015.79 1015.90 1016.00 1016.06 1016.04 1015.91 1015.65 1015.27 1014.82 1014.33 1013.88
1010.41 1010.89 1011.32 1011.64 1011.84 1011.92 1011.97 1012.04 1012.20 1012.48 1012.88 1013.37 1013.88 1014.33 1014.68 1014.87 1014.91 1014.83 1014.67 1014.51 1014.39 1014.36 1014.41 1014.55 1014.74 1014.93 1015.09 1015.21 1015.27 1015.31 1015.34 1015.39 1015.47 1015.58 1015.70 1015.80 1015.84 1015.78 1015.61 1015.32 1014.94 1014.52 1014.10
1009.99 1010.49 1010.96 1011.34 1011.60 1011.76 1011.87 1012.00 1012.21 1012.53 1012.95 1013.44 1013.95 1014.42 1014.77 1014.98 1015.04 1014.98 1014.84 1014.68 1014.55 1014.49 1014.51 1014.59 1014.72 1014.84 1014.94 1015.00 1015.01 1015.00 1014.99 1015.01 1015.07 1015.17 1015.30 1015.42 1015.49 1015.49 1015.39 1015.19 1014.90 1014.57 1014.21
1009.48 1010.01 1010.53 1010.99 1011.34 1011.60 1011.81 1012.01 1012.27 1012.61 1013.04 1013.52 1014.01 1014.45 1014.79 1015.00 1015.06 1015.01 1014.88 1014.72 1014.59 1014.51 1014.50 1014.54 1014.61 1014.68 1014.73 1014.73 1014.70 1014.65 1014.61 1014.59 1014.62 1014.70 1014.82 1014.94 1015.03 1015.07 1015.03 1014.90 1014.70 1014.45 1014.17
1008.96 1009.53 1010.12 1010.66 1011.12 1011.48 1011.78 1012.07 1012.37 1012.73 1013.14 1013.59 1014.03 1014.42 1014.71 1014.89 1014.93 1014.88 1014.76 1014.61 1014.47 1014.38 1014.35 1014.36 1014.39 1014.42 1014.43 1014.41 1014.36 1014.28 1014.22 1014.18 1014.18 1014.23 1014.31 1014.41 1014.51 1014.56 1014.55 1014.49 1014.36 1014.18 1013.99
1008.52 1009.13 1009.79 1010.41 1010.96 1011.42 1011.80 1012.15 1012.49 1012.84 1013.22 1013.61 1013.98 1014.30 1014.53 1014.66 1014.68 1014.61 1014.48 1014.34 1014.21 1014.11 1014.07 1014.06 1014.08 1014.09 1014.08 1014.05 1013.99 1013.91 1013.83 1013.78 1013.76 1013.77 1013.83 1013.90 1013.97 1014.01 1014.03 1013.99 1013.92 1013.81 1013.69
1008.24 1008.89 1009.59 1010.27 1010.88 1011.41 1011.86 1012.24 1012.59 1012.93 1013.26 1013.58 1013.87 1014.11 1014.27 1014.34 1014.32 1014.24 1014.11 1013.97 1013.85 1013.76 1013.71 1013.69 1013.70 1013.71 1013.70 1013.67 1013.62 1013.54 1013.47 1013.41 1013.37 1013.36 1013.38 1013.42 1013.45 1013.48 1013.49 1013.47 1013.44 1013.38 1013.31
1008.14 1008.80 1009.52 1010.22 1010.87 1011.43 1011.91 1012.31 1012.66 1012.96 1013.24 1013.49 1013.70 1013.86 1013.95 1013.97 1013.93 1013.83 1013.71 1013.58 1013.46 1013.38 1013.33 1013.32 1013.32 1013.32 1013.32 1013.30 1013.25 1013.19 1013.13 1013.07 1013.02 1012.99 1012.98 1012.97 1012.98 1012.98 1012.97 1012.96 1012.94 1012.92 1012.89
1008.17 1008.83 1009.55 1010.25 1010.89 1011.45 1011.93 1012.32 1012.65 1012.92 1013.14 1013.33 1013.48 1013.57 1013.62 1013.61 1013.55 1013.45 1013.34 1013.22 1013.12 1013.05 1013.00 1012.98 1012.97 1012.97 1012.96 1012.94 1012.90 1012.85 1012.79 1012.73 1012.67 1012.62 1012.58 1012.54 1012.51 1012.49 1012.47 1012.45 1012.44 1012.44 1012.45
1008.27 1008.92 1009.60 1010.27 1010.88 1011.42 1011.88 1012.25 1012.55 1012.78 1012.97 1013.12 1013.22 1013.28 1013.30 1013.27 1013.22 1013.13 1013.04 1012.94 1012.86 1012.79 1012.74 1012.71 1012.68 1012.66 1012.63 1012.60 1012.55 1012.49 1012.42 1012.36 1012.29 1012.22 1012.16 1012.10 1012.05 1012.00 1011.96 1011.95 1011.95 1011.96 1011.99
1008.35 1008.97 1009.61 1010.23 1010.80 1011.30 1011.72 1012.07 1012.34 1012.56 1012.73 1012.85 1012.94 1012.99 1013.00 1012.99 1012.94 1012.88 1012.81 1012.74 1012.67 1012.60 1012.54 1012.49 1012.44 1012.38 1012.32 1012.25 1012.17 1012.09 1012.01 1011.93 1011.84 1011.76 1011.68 1011.61 1011.54 1011.49 1011.45 1011.43 1011.44 1011.47 1011.52
1008.32 1008.91 1009.50 1010.07 1010.59 1011.05 1011.45 1011.78 1012.04 1012.26 1012.42 1012.55 1012.64 1012.70 1012.73 1012.74 1012.72 1012.68 1012.63 1012.58 1012.51 1012.44 1012.37 1012.28 1012.19 1012.09 1011.99 1011.88 1011.76 1011.65 1011.54 1011.43 1011.33 1011.24 1011.15 1011.07 1011.00 1010.95 1010.91 1010.90 1010.92 1010.97 1011.04
1008.12 1008.68 1009.24 1009.77 1010.25 1010.69 1011.07 1011.40 1011.67 1011.90 1012.08 1012.23 1012.34 1012.42 1012.47 1012.50 1012.50 1012.48 1012.45 1012.40 1012.33 1012.25 1012.15 1012.04 1011.91 1011.76 1011.61 1011.45 1011.30 1011.15 1011.01 1010.89 1010.77 1010.67 1010.58 1010.50 1010.44 1010.39 1010.37 1010.37 1010.41 1010.46 1010.54
1007.74 1008.29 1008.82 1009.32 1009.79 1010.22 1010.60 1010.94 1011.25 1011.50 1011.72 1011.89 1012.03 1012.13 1012.20 1012.24 1012.25 1012.24 1012.20 1012.14 1012.07 1011.97 1011.84 1011.70 1011.53 1011.35 1011.16 1010.97 1010.79 1010.61 1010.46 1010.32 1010.20 1010.10 1010.01 1009.94 1009.89 1009.86 1009.85 1009.87 1009.91 1009.98 1010.06
1007.21 1007.74 1008.26 1008.76 1009.23 1009.67 1010.09 1010.46 1010.80 1011.10 1011.35 1011.56 1011.72 1011.83 1011.90 1011.94 1011.93 1011.90 1011.85 1011.77 1011.67 1011.54 1011.40 1011.23 1011.04 1010.85 1010.64 1010.44 1010.25 1010.07 1009.92 1009.78 1009.67 1009.58 1009.50 1009.44 1009.40 1009.38 1009.38 1009.40 1009.45 1009.51 1009.59
1006.60 1007.12 1007.63 1008.14 1008.63 1009.10 1009.55 1009.98 1010.36 1010.71 1011.00 1011.23 1011.40 1011.51 1011.57 1011.57 1011.54 1011.47 1011.37 1011.26 1011.12 1010.98 1010.81 1010.64 1010.45 1010.27 1010.08 1009.89 1009.72 1009.57 1009.43 1009.31 1009.22 1009.14 1009.08 1009.03 1009.00 1008.98 1008.97 1008.99 1009.03 1009.08 1009.14
1005.98 1006.48 1007.00 1007.52 1008.03 1008.54 1009.04 1009.51 1009.95 1010.33 1010.65 1010.90 1011.07 1011.16 1011.19 1011.15 1011.06 1010.94 1010.79 1010.63 1010.46 1010.30 1010.13 1009.96 1009.80 1009.65 1009.49 1009.36 1009.23 1009.11 1009.02 1008.93 1008.86 1008.80 1008.75 1008.70 1008.66 1008.63 1008.62 1008.61 1008.62 1008.65 1008.68
1005.45 1005.93 1006.43 1006.95 1007.49 1008.03 1008.56 1009.08 1009.55 1009.96 1010.30 1010.55 1010.71 1010.78 1010.76 1010.66 1010.52 1010.33 1010.13 1009.93 1009.74 1009.56 1009.39 1009.25 1009.13 1009.03 1008.94 1008.86 1008.79 1008.73 1008.68 1008.63 1008.59 1008.54 1008.48 1008.43 1008.37 1008.31 1008.26 1008.22 1008.20 1008.18 1008.18
1005.08 1005.52 1006.00 1006.51 1007.04 1007.59 1008.15 1008.68 1009.17 1009.60 1009.94 1010.18 1010.32 1010.34 1010.27 1010.13 1009.92 1009.69 1009.44 1009.20 1008.99 1008.81 1008.67 1008.57 1008.49 1008.45 1008.42 1008.41 1008.40 1008.40 1008.39 1008.37 1008.34 1008.29 1008.22 1008.14 1008.05 1007.95 1007.85 1007.77 1007.69 1007.64 1007.61
1004.95 1005.33 1005.76 1006.23 1006.74 1007.27 1007.81 1008.34 1008.82 1009.24 1009.56 1009.77 1009.87 1009.86 1009.75 1009.55 1009.30 1009.02 1008.75 1008.49 1008.28 1008.11 1008.00 1007.93 1007.91 1007.93 1007.96 1008.01 1008.05 1008.09 1008.10 1008.09 1008.05 1007.98 1007.88 1007.76 1007.62 1007.47 1007.32 1007.19 1007.07 1006.98 1006.91
1005.09 1005.39 1005.75 1006.15 1006.61 1007.09 1007.59 1008.07 1008.51 1008.88 1009.16 1009.32 1009.38 1009.32 1009.17 1008.94 1008.66 1008.36 1008.07 1007.82 1007.62 1007.48 1007.40 1007.38 1007.41 1007.47 1007.55 1007.63 1007.70 1007.75 1007.76 1007.74 1007.67 1007.56 1007.41 1007.24 1007.04 1006.83 1006.63 1006.45 1006.29 1006.18 1006.10
1005.52 1005.73 1006.00 1006.32 1006.68 1007.08 1007.49 1007.88 1008.24 1008.53 1008.74 1008.84 1008.84 1008.73 1008.54 1008.29 1008.00 1007.70 1007.43 1007.20 1007.03 1006.92 1006.88 1006.90 1006.97 1007.05 1007.15 1007.24 1007.31 1007.34 1007.33 1007.26 1007.15 1006.98 1006.78 1006.54 1006.29 1006.03 1005.79 1005.57 1005.39 1005.26 1005.18
Thickness
5767 5769 5769 5770 5767 5763 5760 5757 5754 5751 5748 5744 5741 5738 5737 5737 5736 5735 5732 5729 5725 5723 5720 5718 5716 5716 5714 5713 5711 5710 5708 5707 5709 5707 5707 5713 5719 5722 5724 5726 5727 5728 5729
5762 5764 5765 5766 5762 5759 5757 5755 5751 5748 5745 5742 5739 5737 5734 5733 5734 5732 5728 5726 5722 5719 5718 5714 5711 5710 5708 5707 5707 5705 5702 5701 5703 5699 5697 5698 5704 5713 5721 5722 5723 5724 5725
5760 5761 5762 5762 5761 5758 5755 5754 5748 5745 5742 5740 5737 5735 5732 5729 5727 5725 5724 5722 5719 5716 5713 5710 5707 5705 5702 5701 5701 5699 5697 5693 5695 5696 5692 5688 5689 5697 5707 5712 5716 5718 5719
5763 5762 5761 5760 5759 5757 5755 5751 5747 5743 5740 5737 5733 5728 5724 5720 5720 5720 5719 5718 5715 5713 5710 5707 5704 5700 5698 5696 5695 5695 5691 5689 5686 5689 5691 5691 5690 5684 5686 5696 5704 5709 5710
5764 5761 5761 5761 5760 5758 5754 5750 5745 5740 5737 5733 5730 5725 5721 5719 5718 5716 5714 5712 5711 5710 5708 5704 5701 5696 5693 5691 5689 5687 5686 5683 5681 5680 5681 5682 5684 5683 5677 5678 5687 5695 5701
5765 5762 5762 5761 5758 5757 5754 5749 5742 5736 5733 5730 5727 5722 5717 5714 5711 5709 5707 5706 5706 5706 5704 5701 5697 5692 5688 5685 5683 5681 5679 5677 5675 5674 5673 5672 5672 5673 5673 5672 5675 5680 5689
5764 5761 5759 5757 5755 5753 5750 5746 5739 5733 5731 5728 5724 5719 5715 5711 5708 5706 5704 5702 5700 5699 5697 5694 5689 5686 5682 5679 5677 5674 5672 5670 5668 5666 5666 5666 5667 5669 5669 5667 5668 5671 5678
5767 5764 5762 5759 5756 5753 5749 5744 5738 5732 5728 5725 5721 5717 5713 5709 5707 5704 5700 5697 5694 5693 5691 5687 5683 5679 5676 5673 5670 5667 5665 5664 5662 5661 5659 5658 5659 5661 5662 5661 5659 5658 5663
5768 5766 5765 5762 5758 5753 5747 5743 5736 5730 5726 5723 5719 5715 5711 5707 5703 5700 5697 5694 5691 5688 5685 5680 5676 5672 5669 5665 5662 5659 5657 5655 5654 5652 5652 5651 5651 5652 5654 5655 5654 5649 5648
5772 5770 5766 5762 5758 5752 5747 5742 5735 5728 5724 5720 5717 5716 5710 5706 5702 5698 5693 5689 5685 5681 5677 5673 5669 5665 5662 5658 5654 5651 5649 5647 5645 5643 5642 5641 5642 5643 5644 5646 5646 5645 5643
5774 5771 5766 5762 5756 5750 5745 5739 5733 5728 5723 5719 5715 5710 5707 5703 5699 5694 5691 5687 5682 5677 5672 5667 5662 5658 5654 5650 5646 5643 5640 5637 5636 5634 5634 5633 5633 5632 5633 5635 5636 5637 5638
5776 5771 5766 5759 5753 5748 5743 5737 5733 5728 5724 5720 5715 5709 5705 5700 5695 5691 5687 5682 5677 5671 5666 5661 5656 5652 5648 5643 5639 5635 5632 5629 5627 5625 5624 5624 5624 5624 5623 5623 5625 5627 5629
5775 5769 5763 5756 5750 5745 5740 5735 5731 5727 5724 5719 5713 5708 5702 5697 5692 5687 5682 5677 5671 5665 5660 5655 5650 5645 5641 5636 5632 5628 5625 5622 5620 5618 5616 5615 5615 5614 5614 5614 5615 5617 5621
5772 5766 5758 5753 5747 5742 5737 5732 5728 5726 5722 5716 5710 5704 5699 5694 5689 5684 5678 5672 5666 5660 5655 5650 5644 5639 5635 5631 5627 5622 5619 5615 5613 5611 5609 5608 5607 5606 5606 5606 5607 5608 5610
5767 5762 5755 5749 5744 5739 5734 5730 5726 5723 5718 5712 5706 5701 5697 5692 5686 5680 5674 5668 5661 5656 5650 5645 5639 5634 5629 5626 5621 5616 5613 5609 5605 5603 5602 5601 5600 5600 5598 5599 5599 5599 5600
5766 5761 5755 5749 5742 5737 5732 5728 5724 5720 5715 5708 5703 5699 5694 5688 5682 5676 5670 5664 5657 5651 5645 5639 5633 5628 5624 5619 5612 5607 5604 5600 5597 5596 5595 5594 5594 5594 5594 5592 5592 5591 5591
5766 5760 5755 5748 5742 5737 5732 5726 5722 5718 5712 5706 5701 5696 5690 5684 5678 5673 5666 5659 5652 5646 5640 5634 5628 5623 5618 5612 5606 5600 5596 5593 5591 5589 5587 5587 5590 5589 5588 5587 5586 5586 5585
5766 5761 5755 5749 5743 5738 5732 5726 5722 5715 5709 5703 5698 5693 5687 5680 5674 5667 5660 5653 5647 5640 5634 5629 5623 5618 5613 5608 5602 5595 5590 5588 5586 5584 5582 5581 5580 5580 5579 5578 5579 5579 5580
5767 5761 5756 5750 5744 5737 5732 5725 5718 5712 5706 5700 5695 5689 5683 5676 5668 5661 5655 5648 5642 5635 5630 5625 5620 5614 5610 5604 5597 5590 5587 5585 5583 5581 5580 5578 5576 5574 5571 5570 5570 5571 5572
5764 5759 5755 5748 5740 5735 5729 5720 5713 5707 5701 5697 5691 5686 5679 5672 5664 5658 5651 5644 5638 5631 5626 5621 5617 5612 5607 5601 5593 5586 5583 5581 5579 5577 5576 5574 5571 5568 5565 5562 5562 5562 5563
5759 5755 5750 5742 5736 5731 5724 5714 5708 5702 5699 5694 5688 5681 5675 5667 5661 5655 5648 5641 5634 5628 5622 5617 5613 5609 5605 5599 5592 5584 5579 5576 5574 5571 5570 5568 5564 5561 5557 5554 5554 5554 5554
5753 5749 5741 5736 5732 5726 5717 5708 5702 5699 5695 5688 5681 5675 5669 5663 5658 5651 5644 5637 5630 5624 5619 5614 5611 5608 5604 5598 5591 5583 5576 5571 5568 5565 5563 5561 5556 5552 5549 5548 5548 5547 5546
5749 5744 5736 5728 5724 5720 5712 5703 5699 5695 5688 5681 5675 5670 5664 5659 5653 5646 5640 5635 5629 5622 5617 5612 5608 5604 5601 5595 5588 5581 5574 5567 5562 5561 5558 5553 5549 5546 5545 5544 5542 5540 5540
5740 5736 5730 5721 5715 5712 5707 5700 5695 5689 5682 5674 5668 5664 5658 5654 5650 5645 5640 5633 5627 5621 5614 5608 5604 5600 5596 5591 5585 5578 5572 5565 5559 5556 5553 5550 5548 5544 5543 5542 5540 5538 5539
5731 5727 5721 5714 5709 5705 5700 5695 5690 5683 5675 5669 5663 5658 5654 5651 5647 5643 5638 5632 5627 5619 5611 5606 5601 5595 5591 5584 5575 5570 5568 5562 5556 5549 5548 5548 5548 5547 5545 5544 5542 5540 5539
5719 5714 5710 5705 5701 5696 5692 5688 5684 5677 5669 5661 5656 5652 5649 5647 5644 5639 5635 5632 5624 5618 5611 5604 5597 5593 5587 5581 5574 5568 5561 5554 5547 5543 5546 5547 5547 5546 5545 5543 5541 5540 5539